Regional Weather Roundup
Issued by NWS

Home | Current Version | Previous Version | Graphics & Text | Print | Product List | Glossary On
Versions: 1 2 3 4 5 6 7 8 9 10 11 12 13 14 15 16 17 18 19 20 21 22 23 24 25 26 27 28 29 30 31 32 33 34 35 36 37 38 39 40 41 42 43 44 45 46 47 48 49 50
000
ASUS44 KMEG 170810
RWRTN
TENNESSEE HOURLY STATE WEATHER ROUNDUP
NATIONAL WEATHER SERVICE MEMPHIS TN
200 AM CST FRI NOV 17 2017

TNZ002-004-019-021-049-052-054-088>092-170900-
WEST TENNESSEE

CITY           SKY/WX    TMP DP  RH WIND       PRES   REMARKS
MEMPHIS INTL   CLEAR     46  41  82 E6        30.14R
NWS MEMPHIS      N/A     41 N/A N/A MISG        N/A
JACKSON        CLOUDY    41  38  89 CALM      30.16R
DYERSBURG      FOG       39  37  93 E3        30.17S VSB 3/4
SOMERVILLE     CLEAR     41  39  93 CALM      30.13S
COVINGTON      CLEAR     37  36  93 CALM      30.15S
UNION CITY     CLEAR     36  34  93 CALM      30.17S FOG
BOLIVAR          N/A     36  34  93 CALM      30.14S
PARIS          CLEAR     36  34  93 E6        30.16R FOG     WCI  31
HUNTINGDON     CLEAR     36  36 100 CALM      30.16S FOG
LEXINGTON      CLEAR     37  36  93 CALM      30.16S
SELMER         PTCLDY    39  37  93 E5        30.15R
SAVANNAH       CLEAR     36  36 100 CALM      30.15R
$$

TNZ008-025-027-028-033-062-065-066-170900-
NORTH MIDDLE TENNESSEE

CITY           SKY/WX    TMP DP  RH WIND       PRES   REMARKS
NASHVILLE      PTCLDY    37  34  89 E3        30.19F
PORTLAND         N/A     32  32 100 CALM      30.18F FOG
CLARKSVILLE    CLEAR     31  28  89 E3        30.19F FOG
SMYRNA         CLEAR     32  30  92 CALM      30.20F
COOKEVILLE     FOG       30  30 100 CALM      30.17F VSB 3/4
GALLATIN       CLEAR     34  32  93 CALM      30.22S FOG
CROSSVILLE     CLEAR     33  32  96 NE3       30.18S FOG
$$

TNZ061-075-076-078-094-096-097-170900-
SOUTH MIDDLE TENNESSEE

CITY           SKY/WX    TMP DP  RH WIND       PRES   REMARKS
FAYETTEVILLE   CLEAR     41  37  87 NE3       30.15F
TULLAHOMA      CLEAR     34  32  93 CALM      30.16S
WINCHESTER     MOCLDY    30  30 100 CALM      30.17S
MCMINNVILLE    CLEAR     34  32  93 CALM      30.18S
COLUMBIA       PTCLDY    32  32 100 CALM      30.16S FOG
SHELBYVILLE    CLEAR     32  32 100 SE3       30.17F FOG
$$

TNZ017-018-042-046-047-170900-
NORTHEAST TENNESSEE

CITY           SKY/WX    TMP DP  RH WIND       PRES   REMARKS
TRI CITIES     CLEAR     31  31 100 CALM      30.21R
ELIZABETHTON   CLEAR     30  30 100 CALM      30.22R
$$

TNZ012-013-036-069-073-074-170900-
CENTRAL EAST TENNESSEE

CITY           SKY/WX    TMP DP  RH WIND       PRES   REMARKS
KNOXVILLE      CLEAR     41  38  89 NE5       30.18R
OAK RIDGE      CLEAR     40  38  93 CALM      30.21R
DOWNTOWN KNOXV FOG       37  37 100 CALM      30.20S VSB 0
GATLINBURG     CLEAR     34  34 100 CALM      30.19S
MORRISTOWN     CLEAR     37  34  87 CALM      30.19S
JACKSBORO      CLEAR     34  34 100 CALM      30.25R
$$

TNZ083-085-099-170900-
SOUTHEAST TENNESSEE

CITY           SKY/WX    TMP DP  RH WIND       PRES   REMARKS
CHATTANOOGA    CLEAR     39  36  89 CALM      30.18R
$$

SKY/WX REPORTED AS FAIR MEANS FEW OR NO CLOUDS BELOW
12 THOUSAND FEET.





USA.gov is the U.S. government's official web portal to all federal, state and local government web resources and services.